Date String (YYYY-MM-DD hh:mm:ss) UTC,Instrument flags,Ambient pressure (hPa),Sample flow (lpm),Bypass flow (lpm),Sample temperature (°C),Ambient temperature (°C),ASC tube jacket temperature (°C),LED temperature (°C),Box temperature (°C),Sample RH (%),Span deviation,Mass concentration (μg/m³),Mass concentration (μg/m³),Mass concentration (μg/m³)
DateTimeUTC,F1_M11,P_M11,Q1_M11,Q2_M11,T1_M11,T2_M11,T3_M11,T4_M11,T5_M11,U1_M11,ZSPAN_M11,X0_M11,X2_M11,X1_M11
2022-12-16 01:00:00,,0822.0,4.97,0.00,21.6,19.8,00.0,30.6,23.1,04.7,0000.0,0002.13,0001.54,0001.37
2022-12-16 01:01:00,,0822.1,5.05,0.00,21.5,19.7,00.0,30.5,23.1,04.7,0000.0,0002.08,0001.54,0001.37
2022-12-16 01:02:00,,0822.1,4.98,0.00,21.5,19.7,00.0,30.5,23.1,04.7,0000.0,0002.09,0001.51,0001.35
2022-12-16 01:03:00,,0822.2,5.00,0.00,21.5,20.9,00.0,30.4,23.3,04.7,0000.0,0002.15,0001.51,0001.34
2022-12-16 01:04:00,,0822.2,5.01,0.00,21.7,21.9,00.0,30.4,23.6,04.7,0000.0,0002.23,0001.51,0001.33
2022-12-16 01:05:00,,0822.3,4.99,0.00,21.7,21.7,00.0,30.5,23.7,04.6,0000.0,0002.18,0001.47,0001.30
2022-12-16 01:06:00,,0822.3,5.00,0.00,21.7,21.3,00.0,30.5,23.6,04.6,0000.0,0002.09,0001.40,0001.26
2022-12-16 01:07:00,,0822.3,5.00,0.00,21.7,20.9,00.0,30.5,23.5,04.6,0000.0,0002.02,0001.37,0001.24
2022-12-16 01:08:00,,0822.3,5.03,0.00,21.7,20.7,00.0,30.6,23.4,04.6,0000.0,0002.04,0001.39,0001.24
2022-12-16 01:09:00,,0822.4,4.96,0.00,21.7,20.5,00.0,30.6,23.4,04.6,0000.0,0001.99,0001.38,0001.23
2022-12-16 01:10:00,,0822.4,5.05,0.00,21.7,20.4,00.0,30.6,23.4,04.7,0000.0,0002.08,0001.38,0001.23
2022-12-16 01:11:00,,0822.4,4.95,0.00,21.6,20.2,00.0,30.5,23.3,04.8,0000.0,0002.08,0001.39,0001.25
2022-12-16 01:12:00,,0822.4,5.05,0.00,21.6,20.1,00.0,30.5,23.3,04.8,0000.0,0002.02,0001.37,0001.26
2022-12-16 01:13:00,,0822.4,4.95,0.00,21.6,20.1,00.0,30.5,23.3,04.6,0000.0,0001.96,0001.38,0001.26
2022-12-16 01:14:00,,0822.4,5.05,0.00,21.6,20.0,00.0,30.5,23.2,04.6,0000.0,0001.89,0001.37,0001.26
2022-12-16 01:15:00,,0822.4,4.95,0.00,21.5,19.9,00.0,30.5,23.2,04.6,0000.0,0001.80,0001.37,0001.26
2022-12-16 01:16:00,,0822.4,5.05,0.00,21.5,20.1,00.0,30.5,23.3,04.7,0000.0,0001.84,0001.40,0001.27
2022-12-16 01:17:00,,0822.4,4.96,0.00,21.6,21.2,00.0,30.4,23.5,04.7,0000.0,0001.90,0001.43,0001.29
2022-12-16 01:18:00,,0822.5,5.02,0.00,21.8,22.0,00.0,30.4,23.8,04.6,0000.0,0001.99,0001.46,0001.29
2022-12-16 01:19:00,,0822.5,5.02,0.00,21.8,21.8,00.0,30.5,23.8,04.5,0000.0,0002.04,0001.47,0001.29
2022-12-16 01:20:00,,0822.4,5.00,0.00,21.8,21.4,00.0,30.6,23.7,04.5,0000.0,0002.00,0001.45,0001.28
2022-12-16 01:21:00,,0822.4,5.00,0.00,21.8,21.0,00.0,30.6,23.6,04.5,0000.0,0001.95,0001.47,0001.28
2022-12-16 01:22:00,,0822.5,4.99,0.00,21.8,20.8,00.0,30.6,23.5,04.5,0000.0,0001.93,0001.47,0001.28
2022-12-16 01:23:00,,0822.5,4.99,0.00,21.8,20.6,00.0,30.6,23.5,04.5,0000.0,0002.01,0001.47,0001.28
2022-12-16 01:24:00,,0822.6,5.05,0.00,21.7,20.4,00.0,30.6,23.4,04.5,0000.0,0002.12,0001.49,0001.27
2022-12-16 01:25:00,,0822.6,4.97,0.00,21.7,20.3,00.0,30.6,23.4,04.5,0000.0,0002.20,0001.51,0001.27
2022-12-16 01:26:00,,0822.6,5.01,0.00,21.7,20.2,00.0,30.6,23.4,04.5,0000.0,0002.26,0001.53,0001.28
2022-12-16 01:27:00,,0822.6,4.99,0.00,21.7,20.2,00.0,30.6,23.3,04.3,0000.0,0002.29,0001.51,0001.26
2022-12-16 01:28:00,,0822.6,5.02,0.00,21.6,20.1,00.0,30.6,23.3,04.3,0000.0,0002.32,0001.49,0001.24
2022-12-16 01:29:00,,0822.6,5.00,0.00,21.6,20.0,00.0,30.6,23.3,04.3,0000.0,0002.25,0001.46,0001.23
2022-12-16 01:30:00,,0822.6,4.99,0.00,21.6,20.3,00.0,30.5,23.3,04.3,0000.0,0002.18,0001.43,0001.22
2022-12-16 01:31:00,,0822.6,4.99,0.00,21.7,21.3,00.0,30.5,23.6,04.3,0000.0,0002.13,0001.40,0001.20
2022-12-16 01:32:00,,0822.6,5.01,0.00,21.8,22.0,00.0,30.5,23.8,04.3,0000.0,0002.21,0001.38,0001.19
2022-12-16 01:33:00,,0822.6,5.01,0.00,21.9,21.7,00.0,30.6,23.8,04.3,0000.0,0002.32,0001.39,0001.16
2022-12-16 01:34:00,,0822.6,5.00,0.00,21.8,21.3,00.0,30.6,23.7,04.3,0000.0,0002.24,0001.36,0001.14
2022-12-16 01:35:00,,0822.7,4.99,0.00,21.8,20.9,00.0,30.6,23.6,04.3,0000.0,0002.09,0001.33,0001.13
2022-12-16 01:36:00,,0822.6,4.99,0.00,21.8,20.7,00.0,30.6,23.6,04.3,0000.0,0002.05,0001.33,0001.12
2022-12-16 01:37:00,,0822.7,5.03,0.00,21.8,20.5,00.0,30.6,23.5,04.3,0000.0,0002.08,0001.34,0001.12
2022-12-16 01:38:00,,0822.6,4.95,0.00,21.7,20.4,00.0,30.6,23.5,04.3,0000.0,0002.00,0001.33,0001.12
2022-12-16 01:39:00,,0822.6,5.04,0.00,21.7,20.3,00.0,30.6,23.4,04.3,0000.0,0001.99,0001.34,0001.13
2022-12-16 01:40:00,,0822.6,4.98,0.00,21.7,20.2,00.0,30.6,23.4,04.3,0000.0,0001.97,0001.34,0001.12
2022-12-16 01:41:00,,0822.6,4.98,0.00,21.7,20.1,00.0,30.6,23.4,04.3,0000.0,0001.97,0001.33,0001.11
2022-12-16 01:42:00,,0822.6,5.02,0.00,21.6,20.1,00.0,30.6,23.3,04.3,0000.0,0001.99,0001.33,0001.11
2022-12-16 01:43:00,,0822.7,5.00,0.00,21.6,20.0,00.0,30.6,23.3,04.3,0000.0,0001.84,0001.31,0001.11
2022-12-16 01:44:00,,0822.7,4.97,0.00,21.6,20.4,00.0,30.5,23.4,04.2,0000.0,0001.69,0001.26,0001.11
2022-12-16 01:45:00,,0822.7,5.03,0.00,21.7,21.4,00.0,30.5,23.6,04.3,0000.0,0001.69,0001.26,0001.10
2022-12-16 01:46:00,,0822.7,4.98,0.00,21.8,22.0,00.0,30.5,23.8,04.2,0000.0,0001.68,0001.25,0001.10
2022-12-16 01:47:00,,0822.7,5.00,0.00,21.9,21.7,00.0,30.6,23.8,04.2,0000.0,0001.61,0001.22,0001.08
2022-12-16 01:48:00,,0822.7,5.00,0.00,21.8,21.3,00.0,30.6,23.7,04.2,0000.0,0001.66,0001.19,0001.07
2022-12-16 01:49:00,,0822.7,4.99,0.00,21.8,20.9,00.0,30.6,23.6,04.2,0000.0,0002.67,0001.20,0001.06
2022-12-16 01:50:00,,0822.7,5.05,0.00,21.8,20.7,00.0,30.6,23.6,04.2,0000.0,0003.27,0001.19,0001.06
2022-12-16 01:51:00,,0822.7,4.95,0.00,21.8,20.5,00.0,30.6,23.5,04.1,0000.0,0003.32,0001.20,0001.04
2022-12-16 01:52:00,,0822.7,5.05,0.00,21.8,20.4,00.0,30.6,23.5,04.2,0000.0,0003.52,0001.19,0001.03
2022-12-16 01:53:00,,0822.6,4.95,0.00,21.7,20.3,00.0,30.6,23.4,04.2,0000.0,0003.64,0001.18,0001.02
2022-12-16 01:54:00,,0822.7,5.05,0.00,21.7,20.2,00.0,30.6,23.4,04.2,0000.0,0003.62,0001.16,0001.00
2022-12-16 01:55:00,,0822.7,4.98,0.00,21.7,20.1,00.0,30.6,23.4,04.2,0000.0,0003.69,0001.15,0000.98
2022-12-16 01:56:00,,0822.6,4.98,0.00,21.7,20.1,00.0,30.6,23.3,04.2,0000.0,0003.67,0001.14,0000.97
2022-12-16 01:57:00,,0822.6,5.02,0.00,21.7,20.7,00.0,30.5,23.5,04.2,0000.0,0003.67,0001.13,0000.96
2022-12-16 01:58:00,,0822.7,4.99,0.00,21.8,21.7,00.0,30.5,23.7,04.1,0000.0,0003.73,0001.15,0000.96
2022-12-16 01:59:00,,0822.7,5.01,0.00,21.9,22.0,00.0,30.6,23.9,04.1,0000.0,0003.61,0001.14,0000.95
